Location: Lecco
(45.8566°N, 9.3977°E)
Time: 16:00:14
(UTC+02:00)

ISS - Pass Details

Date: 18 July 2018
Orbit: 402 x 408 km, 51.6° (Epoch: 23 July)

Event Time Altitude Azimuth Distance (km) Brightness Sun altitude
Exits shadow 00:50:02 41° 31° (NNE) 600 -2.7 -22.5°
Drops below altitude 10° 00:52:28 10° 58° (ENE) 1,470 -0.7 -22.6°
Sets 00:54:35 0° 62° (ENE) 2,334 0.3 -22.6°
